Location: Meriden
(44.0740°N, 93.3870°W)
Time: 07:54:16
(UTC-05:00)

Amateur Radio Satellites - All Passes

Search period start: 30 March 2015 07:24
Search period end: 31 March 2015 07:24
Location: Meriden, 44.0740°N, 93.3870°W

Satellite Date Start Highest point End Downlink Frequencies (MHz)
Time Altitude Azimuth
DANDE 30 Mar 07:27:17 07:30:03 18° 73° (ENE) 07:33:30 436.750
CUTE-I 30 Mar 07:39:55 07:45:16 77° 102° (ESE) 07:50:35 437.470
Cubesat XI-IV 30 Mar 07:40:21 07:45:42 78° 102° (ESE) 07:51:02 437.490
CUBESAT XI-V 30 Mar 07:43:14 07:47:24 30° 266° (W) 07:51:31 437.345
PHONESAT 2.4 30 Mar 07:53:53 07:57:12 39° 169° (S) 08:00:32 2401.200-2431.200
PRISM 30 Mar 08:13:19 08:15:55 15° 270° (W) 08:18:23 437.425
CUSAT 1 30 Mar 08:14:34 08:18:47 73° 79° (ENE) 08:24:29 437.405
JAS-2 30 Mar 08:23:27 08:25:27 11° 314° (NW) 08:26:58 435.910
AO-7 30 Mar 08:30:33 08:34:26 14° 318° (NW) 08:37:56 29.400- 29.500
GONETS M04 30 Mar 08:31:28 08:39:25 38° 274° (W) 08:47:12
BRITE-PL 30 Mar 08:35:49 08:38:11 15° 90° (E) 08:40:47 437.365/2234.400
VERMONT LUNAR 30 Mar 08:44:23 08:47:34 42° 187° (S) 08:50:45 437.305
CANX-2 30 Mar 08:47:09 08:48:41 12° 87° (E) 08:50:27 2200.000
STRAND 1 30 Mar 08:52:21 08:55:09 14° 273° (W) 08:57:41 437.568
CUTE 1.7 + AOD 2 30 Mar 09:00:11 09:02:39 15° 89° (E) 09:05:16 437.475
DOVE 4 30 Mar 09:03:08 09:05:15 14° 89° (E) 09:07:37 437.250
DANDE 30 Mar 09:09:29 09:13:20 42° 262° (W) 09:18:22 436.750
GOMX 1 30 Mar 09:17:15 09:20:54 27° 95° (E) 09:24:46 467.674
AAUSAT CUBESAT 2 30 Mar 09:21:25 09:23:49 15° 89° (E) 09:26:24 437.432
CUTE-I 30 Mar 09:21:27 09:24:47 17° 300° (WNW) 09:27:56 437.470
Cubesat XI-IV 30 Mar 09:21:56 09:25:14 16° 300° (WNW) 09:28:20 437.490
HO-68 30 Mar 09:26:26 09:33:02 38° 96° (E) 09:39:41 435.675
SEEDS 30 Mar 09:27:21 09:30:51 25° 93° (E) 09:34:26 437.485
PHONESAT 2.4 30 Mar 09:31:53 09:35:16 44° 186° (S) 09:38:39 2401.200-2431.200
UNISAT 6 30 Mar 09:37:40 09:39:29 13° 62° (ENE) 09:41:30 437.425
TIGRISAT 30 Mar 09:46:49 09:49:14 15° 63° (ENE) 09:51:49 435.000
COMPASS 1 30 Mar 09:48:12 09:52:04 33° 96° (E) 09:55:57 437.405
Oscar 11 30 Mar 09:53:07 09:55:49 16° 90° (E) 09:58:41 145.826/435.025
BEESAT 3 30 Mar 09:58:22 10:01:27 21° 114° (ESE) 10:04:39 437.485
CUSAT 1 30 Mar 09:59:32 10:01:33 12° 267° (W) 10:03:28 437.405
QB50P1 30 Mar 10:05:07 10:06:55 13° 62° (ENE) 10:08:53 145.935-145.965
FUNcube-1 30 Mar 10:06:17 10:07:51 12° 87° (E) 10:09:40 145.935
DUCHIFAT 1 30 Mar 10:06:25 10:08:14 13° 63° (ENE) 10:10:13 145.980
UWE-3 30 Mar 10:11:49 10:14:45 18° 91° (E) 10:17:52 435.000/436.395/437.385
CINEMA 3 30 Mar 10:11:58 10:16:04 38° 97° (E) 10:20:22 145.822/145.860
BRITE-PL 30 Mar 10:13:01 10:17:05 49° 287° (WNW) 10:21:18 437.365/2234.400
ANTELSAT 30 Mar 10:16:05 10:19:48 30° 68° (ENE) 10:23:38 437.575/2403.000
CUBEBUG 2 30 Mar 10:18:14 10:21:52 25° 94° (E) 10:25:38 437.445
ZACube-1 30 Mar 10:18:31 10:21:17 17° 90° (E) 10:24:15 437.345
QB50P2 30 Mar 10:19:08 10:21:56 18° 65° (ENE) 10:24:53 145.880/145.840
CANX-2 30 Mar 10:20:51 10:25:10 67° 285° (WNW) 10:29:26 2200.000
VERMONT LUNAR 30 Mar 10:22:20 10:24:51 20° 203° (SSW) 10:27:20 437.305
DELFI C3 30 Mar 10:29:47 10:33:24 30° 95° (E) 10:37:02 145.870
CUTE 1.7 + AOD 2 30 Mar 10:34:44 10:38:57 52° 287° (WNW) 10:43:08 437.475
DOVE 4 30 Mar 10:39:11 10:43:27 60° 286° (WNW) 10:47:54 437.250
AIST 2 30 Mar 10:39:58 10:42:49 18° 112° (ESE) 10:45:47 435.215
BUGSAT 1 30 Mar 10:41:34 10:44:41 21° 67° (ENE) 10:47:51 437.445
POPSAT HIP 1 30 Mar 10:46:36 10:50:22 33° 70° (ENE) 10:54:10 437.405
GOMX 1 30 Mar 10:55:23 10:59:05 28° 290° (WNW) 11:02:51 467.674
AAUSAT CUBESAT 2 30 Mar 10:55:42 10:59:49 50° 287° (WNW) 11:03:55 437.432
NANOSAT C BR1 30 Mar 10:56:35 11:00:32 41° 71° (ENE) 11:04:32 145.865
BEESAT 2 30 Mar 10:59:06 11:03:13 76° 123° (ESE) 11:07:24 435.950
UKube-1 30 Mar 10:59:09 11:02:56 29° 96° (E) 11:06:44 .
POLYITAN 1 30 Mar 11:01:35 11:05:38 48° 72° (ENE) 11:09:44 437.675
HUMSAT D 30 Mar 11:01:38 11:05:02 23° 93° (E) 11:08:32 437.325/437.525
SEEDS 30 Mar 11:02:54 11:06:44 31° 290° (WNW) 11:10:30 437.485
PHONESAT 2.4 30 Mar 11:10:25 11:13:12 22° 202° (SSW) 11:15:59 2401.200-2431.200
DX 1 30 Mar 11:10:25 11:14:32 41° 98° (E) 11:18:38 434.975-435.025
UNISAT 6 30 Mar 11:11:30 11:15:45 70° 258° (WSW) 11:20:07 437.425
HO-68 30 Mar 11:14:05 11:20:53 46° 295° (WNW) 11:27:36 435.675
TIGRISAT 30 Mar 11:21:24 11:25:35 56° 260° (W) 11:29:51 435.000
COMPASS 1 30 Mar 11:24:12 11:27:38 23° 292° (WNW) 11:30:58 437.405
Oscar 11 30 Mar 11:28:07 11:32:21 49° 288° (WNW) 11:36:33 145.826/435.025
BEESAT 3 30 Mar 11:35:22 11:39:17 42° 311° (NW) 11:43:15 437.485
50 SAT 30 Mar 11:36:37 11:40:20 35° 97° (E) 11:44:06 437.505
QB50P1 30 Mar 11:38:07 11:42:19 68° 259° (W) 11:46:32 145.935-145.965
DUCHIFAT 1 30 Mar 11:39:24 11:43:36 67° 258° (WSW) 11:47:48 145.980
FUNcube-1 30 Mar 11:40:21 11:44:43 70° 285° (WNW) 11:49:10 145.935
UWE-3 30 Mar 11:47:19 11:51:34 48° 288° (WNW) 11:55:54 435.000/436.395/437.385
CINEMA 3 30 Mar 11:49:39 11:53:08 23° 292° (WNW) 11:56:40 145.822/145.860
CUBEBUG 1 30 Mar 11:51:55 11:55:22 23° 93° (E) 11:58:53 437.445
ANTELSAT 30 Mar 11:53:02 11:56:39 26° 266° (W) 12:00:15 437.575/2403.000
QB50P2 30 Mar 11:53:31 11:57:34 44° 262° (W) 12:01:38 145.880/145.840
ZACube-1 30 Mar 11:53:44 11:57:59 50° 287° (WNW) 12:02:18 437.345
VELOX 1 30 Mar 11:54:13 11:58:32 53° 100° (E) 12:02:51 145.980
CUBEBUG 2 30 Mar 11:54:37 11:58:38 34° 290° (WNW) 12:02:43 437.445
AISAT 30 Mar 11:59:17 12:03:41 62° 101° (E) 12:08:02 437.250
DELFI C3 30 Mar 12:05:06 12:08:29 24° 292° (WNW) 12:11:46 145.870
Oscar 19 30 Mar 12:10:27 12:12:10 12° 58° (ENE) 12:14:09 437.125/150
BUGSAT 1 30 Mar 12:16:10 12:20:00 35° 263° (W) 12:23:47 437.445
AIST 2 30 Mar 12:16:53 12:21:04 52° 309° (NW) 12:25:18 435.215
POPSAT HIP 1 30 Mar 12:22:56 12:26:20 23° 267° (W) 12:29:40 437.405
ESTCUBE 1 30 Mar 12:32:08 12:36:40 71° 102° (ESE) 12:41:10 437.505/2401.250
NANOSAT C BR1 30 Mar 12:33:40 12:36:38 18° 269° (W) 12:39:29 145.865
UKube-1 30 Mar 12:35:20 12:39:03 27° 292° (WNW) 12:42:40 .
HUMSAT D 30 Mar 12:37:03 12:40:53 33° 290° (WNW) 12:44:43 437.325/437.525
BEESAT 2 30 Mar 12:39:08 12:41:54 17° 323° (NW) 12:44:36 435.950
POLYITAN 1 30 Mar 12:39:15 12:41:54 16° 270° (W) 12:44:23 437.675
O/OREOS (USA 219) 30 Mar 12:44:52 12:47:07 14° 47° (NE) 12:49:32 437.305
DX 1 30 Mar 12:47:17 12:50:33 21° 295° (WNW) 12:53:43 434.975-435.025
50 SAT 30 Mar 13:12:02 13:15:04 20° 293° (WNW) 13:18:01 437.505
ITAMSAT 1 30 Mar 13:16:40 13:19:48 17° 60° (ENE) 13:23:07 435.822/435.867
TISAT 1 30 Mar 13:18:19 13:22:20 43° 98° (E) 13:26:22 437.305
YUBILEINY 30 Mar 13:23:44 13:31:25 37° 86° (E) 13:39:19 435.215
CUBEBUG 1 30 Mar 13:27:55 13:31:50 33° 291° (WNW) 13:35:42 437.445
VELOX 1 30 Mar 13:31:50 13:34:46 17° 296° (WNW) 13:37:31 145.980
SPROUT 30 Mar 13:32:26 13:36:44 77° 102° (ESE) 13:41:01 437.525
AISAT 30 Mar 13:37:17 13:39:51 15° 298° (WNW) 13:42:15 437.250
Oscar 19 30 Mar 13:45:40 13:50:47 80° 73° (ENE) 13:55:57 437.125/150
ITUPSAT 1 30 Mar 13:48:02 13:50:46 16° 89° (E) 13:53:43 437.325
AO-7 30 Mar 13:55:41 13:59:52 16° 44° (NE) 14:04:23 29.400- 29.500
AIST 2 30 Mar 13:59:27 14:00:42 11° 330° (NNW) 14:01:48 435.215
Gurwin Techsat 1B 30 Mar 14:09:59 14:14:49 38° 68° (ENE) 14:19:44 435.225
ESTCUBE 1 30 Mar 14:10:39 14:13:02 14° 298° (WNW) 14:15:14 437.505/2401.250
O/OREOS (USA 219) 30 Mar 14:22:41 14:27:16 83° 250° (WSW) 14:31:47 437.305
SWISSCUBE 30 Mar 14:34:03 14:38:41 48° 99° (E) 14:43:19 437.505
BEESAT 30 Mar 14:36:49 14:41:27 47° 99° (E) 14:46:04 436.000
ITAMSAT 1 30 Mar 14:53:33 14:58:46 74° 257° (WSW) 15:04:01 435.822/435.867
TISAT 1 30 Mar 14:54:56 14:57:52 18° 295° (WNW) 15:00:42 437.305
JAS-2 30 Mar 15:03:50 15:09:13 24° 57° (ENE) 15:15:08 435.910
PCSat 30 Mar 15:09:10 15:14:30 63° 117° (ESE) 15:19:54 145.827
SPROUT 30 Mar 15:10:38 15:12:18 12° 298° (WNW) 15:13:45 437.525
YUBILEINY 30 Mar 15:19:25 15:28:00 53° 286° (WNW) 15:36:37 435.215
ITUPSAT 1 30 Mar 15:24:25 15:29:10 62° 288° (WNW) 15:33:53 437.325
Oscar 19 30 Mar 15:28:27 15:30:53 13° 273° (W) 15:33:02 437.125/150
HORYU 2 30 Mar 15:39:38 15:44:00 60° 73° (ENE) 15:48:24 437.375
AO-7 30 Mar 15:43:04 15:51:07 59° 65° (ENE) 15:59:14 29.400- 29.500
AIST 1 30 Mar 15:47:23 15:51:43 86° 80° (E) 15:56:00
Gurwin Techsat 1B 30 Mar 15:50:13 15:54:53 30° 266° (W) 15:59:32 435.225
KKS-1 30 Mar 16:03:15 16:07:43 71° 103° (ESE) 16:12:09 437.445
SWISSCUBE 30 Mar 16:12:38 16:16:16 21° 296° (WNW) 16:19:46 437.505
BEESAT 30 Mar 16:15:22 16:19:01 22° 296° (WNW) 16:22:33 436.000
STARS 30 Mar 16:32:26 16:36:52 88° 287° (WNW) 16:41:17 437.465
JAS-2 30 Mar 16:46:24 16:53:24 82° 257° (WSW) 17:01:11 435.910
PCSat 30 Mar 16:53:57 16:58:24 25° 317° (NW) 17:02:48 145.827
HORYU 2 30 Mar 17:18:44 17:21:08 14° 271° (W) 17:23:21 437.375
YUBILEINY 30 Mar 17:24:52 17:27:37 11° 312° (NW) 17:29:45 435.215
CUTE-I 30 Mar 17:25:10 17:29:03 22° 62° (ENE) 17:33:06 437.470
Cubesat XI-IV 30 Mar 17:25:39 17:29:37 22° 63° (ENE) 17:33:43 437.490
AO-7 30 Mar 17:36:59 17:44:23 34° 265° (W) 17:51:39 29.400- 29.500
BEESAT 2 30 Mar 17:40:41 17:42:35 13° 33° (NNE) 17:44:37 435.950
KKS-1 30 Mar 17:41:36 17:43:51 13° 298° (WNW) 17:45:55 437.445
MOZHAYETS 4 30 Mar 17:47:02 17:51:37 55° 99° (E) 17:56:10
AUBIESAT-1 30 Mar 18:07:32 18:11:28 25° 98° (E) 18:15:24 437.475
RS-15 30 Mar 18:08:44 18:16:50 26° 104° (ESE) 18:25:28 29.354- 29.394
STARS 30 Mar 18:11:53 18:12:42 10° 300° (WNW) 18:13:18 437.465
BEESAT 3 30 Mar 18:15:20 18:18:45 24° 43° (NE) 18:22:09 437.485
M-CUBED/EXP-1 PRIME 30 Mar 18:32:36 18:37:20 49° 104° (ESE) 18:41:57 437.505
JAS-2 30 Mar 18:35:35 18:39:54 16° 279° (W) 18:43:59 435.910
SO-50 30 Mar 18:42:19 18:46:20 30° 115° (ESE) 18:50:31 436.795
AIST 2 30 Mar 18:59:20 19:02:44 23° 41° (NE) 19:06:08 435.215
CUTE-I 30 Mar 19:03:29 19:08:46 58° 259° (W) 19:14:04 437.470
Cubesat XI-IV 30 Mar 19:04:05 19:09:22 57° 259° (W) 19:14:40 437.490
BEESAT 2 30 Mar 19:17:22 19:21:32 74° 54° (NE) 19:25:37 435.950
STRAND 1 30 Mar 19:19:58 19:23:53 22° 92° (E) 19:27:54 437.568
MOZHAYETS 4 30 Mar 19:25:17 19:28:28 18° 296° (WNW) 19:31:31
GONETS M04 30 Mar 19:36:53 19:45:14 56° 91° (E) 19:53:44
CUBESAT XI-V 30 Mar 19:37:49 19:42:25 61° 100° (E) 19:46:59 437.345
AUBIESAT-1 30 Mar 19:41:51 19:46:25 42° 295° (WNW) 19:50:52 437.475
CANX-2 30 Mar 19:42:35 19:43:54 11° 62° (ENE) 19:45:24 2200.000
BRITE-PL 30 Mar 19:48:07 19:51:38 23° 68° (ENE) 19:55:04 437.365/2234.400
PRISM 30 Mar 19:52:27 19:56:38 68° 102° (ESE) 20:00:46 437.425
BEESAT 3 30 Mar 19:53:04 19:56:57 40° 242° (WSW) 20:00:46 437.485
CUTE 1.7 + AOD 2 30 Mar 19:55:21 19:57:32 14° 63° (ENE) 19:59:53 437.475
HO-68 30 Mar 19:56:49 20:03:04 35° 61° (ENE) 20:09:27 435.675
M-CUBED/EXP-1 PRIME 30 Mar 20:08:01 20:11:54 24° 300° (WNW) 20:15:39 437.505
DOVE 4 30 Mar 20:10:50 20:13:26 16° 65° (ENE) 20:16:07 437.250
AAUSAT CUBESAT 2 30 Mar 20:14:42 20:16:43 14° 63° (ENE) 20:18:54 437.432
RS-15 30 Mar 20:17:04 20:27:59 85° 304° (NW) 20:39:13 29.354- 29.394
SEEDS 30 Mar 20:21:22 20:24:34 22° 67° (ENE) 20:27:52 437.485
SO-50 30 Mar 20:22:23 20:26:47 39° 314° (NW) 20:31:19 436.795
GOMX 1 30 Mar 20:27:13 20:31:13 35° 71° (ENE) 20:35:06 467.674
AIST 2 30 Mar 20:37:28 20:41:36 49° 241° (WSW) 20:45:38 435.215
COMPASS 1 30 Mar 20:41:13 20:44:47 28° 69° (ENE) 20:48:27 437.405
DANDE 30 Mar 20:45:29 20:46:02 11° 94° (E) 20:46:43 436.750
Oscar 11 30 Mar 20:49:53 20:52:31 16° 64° (ENE) 20:55:18 145.826/435.025
BEESAT 2 30 Mar 20:57:37 20:59:08 12° 250° (WSW) 21:00:29 435.950
STRAND 1 30 Mar 20:58:28 21:03:23 47° 290° (WNW) 21:08:14 437.568
FUNcube-1 30 Mar 21:04:44 21:06:01 11° 62° (ENE) 21:07:29 145.935
UWE-3 30 Mar 21:11:22 21:13:57 17° 65° (ENE) 21:16:42 435.000/436.395/437.385
CANX-2 30 Mar 21:15:02 21:19:16 78° 258° (WSW) 21:23:34 2200.000
CINEMA 3 30 Mar 21:15:42 21:19:34 39° 71° (ENE) 21:23:28 145.822/145.860
CUBESAT XI-V 30 Mar 21:16:32 21:19:26 16° 297° (WNW) 21:22:09 437.345
ZACube-1 30 Mar 21:16:55 21:19:20 16° 64° (ENE) 21:21:56 437.345
CUBEBUG 2 30 Mar 21:18:40 21:21:56 23° 68° (ENE) 21:25:18 437.445
DELFI C3 30 Mar 21:19:21 21:22:35 24° 68° (ENE) 21:25:54 145.870
BRITE-PL 30 Mar 21:25:43 21:30:04 37° 263° (W) 21:34:07 437.365/2234.400
CUSAT 1 30 Mar 21:27:44 21:30:28 75° 100° (E) 21:33:04 437.405
CUTE 1.7 + AOD 2 30 Mar 21:28:49 21:33:01 60° 260° (W) 21:37:15 437.475
PRISM 30 Mar 21:29:42 21:31:38 13° 298° (WNW) 21:33:23 437.425
GONETS M04 30 Mar 21:34:42 21:42:33 35° 293° (WNW) 21:50:21
HO-68 30 Mar 21:43:38 21:50:35 52° 260° (W) 21:57:35 435.675
DOVE 4 30 Mar 21:46:46 21:50:56 48° 261° (W) 21:55:00 437.250
AAUSAT CUBESAT 2 30 Mar 21:47:46 21:51:54 62° 259° (W) 21:56:05 437.432
UKube-1 30 Mar 21:55:33 21:59:22 31° 68° (ENE) 22:03:14 .
HUMSAT D 30 Mar 21:55:38 21:58:37 20° 66° (ENE) 22:01:43 437.325/437.525
SEEDS 30 Mar 21:56:17 22:00:12 36° 264° (W) 22:04:07 437.485
GOMX 1 30 Mar 22:06:01 22:09:30 22° 267° (W) 22:12:47 467.674
DX 1 30 Mar 22:07:23 22:11:30 43° 71° (ENE) 22:15:40 434.975-435.025
SO-50 30 Mar 22:07:39 22:08:46 11° 337° (NNW) 22:09:46 436.795
PCSat 30 Mar 22:13:23 22:16:31 16° 34° (NE) 22:19:48 145.827
COMPASS 1 30 Mar 22:16:54 22:20:29 26° 266° (W) 22:24:02 437.405
Oscar 11 30 Mar 22:24:07 22:28:20 53° 261° (W) 22:32:36 145.826/435.025
50 SAT 30 Mar 22:24:29 22:27:44 26° 69° (ENE) 22:31:04 437.505
DANDE 30 Mar 22:27:01 22:29:12 19° 286° (WNW) 22:31:11 436.750
RS-15 30 Mar 22:32:29 22:42:14 34° 334° (NNW) 22:52:10 29.354- 29.394
FUNcube-1 30 Mar 22:37:42 22:41:50 73° 258° (WSW) 22:46:01 145.935
UWE-3 30 Mar 22:46:12 22:50:12 46° 261° (W) 22:54:14 435.000/436.395/437.385
ISS 30 Mar 22:47:02 22:50:03 36° 141° (SE) 22:53:05 145.825
CUBEBUG 1 30 Mar 22:49:40 22:53:14 25° 67° (ENE) 22:56:52 437.445
ZACube-1 30 Mar 22:51:20 22:55:22 50° 261° (W) 22:59:27 437.345
VELOX 1 30 Mar 22:53:12 22:57:33 57° 72° (ENE) 23:01:55 145.980
DELFI C3 30 Mar 22:54:00 22:57:39 30° 265° (W) 23:01:17 145.870
CINEMA 3 30 Mar 22:54:03 22:57:02 18° 269° (W) 22:59:52 145.822/145.860
CUBEBUG 2 30 Mar 22:54:51 22:58:33 31° 264° (W) 23:02:16 437.445
AISAT 30 Mar 22:58:30 23:02:54 67° 74° (ENE) 23:07:19 437.250
UNISAT 6 30 Mar 23:02:21 23:05:55 22° 92° (E) 23:09:37 437.425
TIGRISAT 30 Mar 23:11:39 23:15:31 27° 94° (E) 23:19:30 435.000
QB50P1 30 Mar 23:22:51 23:25:38 17° 91° (E) 23:28:33 145.935-145.965
DUCHIFAT 1 30 Mar 23:23:49 23:26:35 17° 91° (E) 23:29:29 145.980
HUMSAT D 30 Mar 23:30:24 23:34:11 36° 263° (W) 23:38:01 437.325/437.525
UKube-1 30 Mar 23:31:53 23:35:33 26° 265° (W) 23:39:09 .
YUBILEINY 30 Mar 23:31:58 23:37:50 20° 57° (ENE) 23:44:04 435.215
ESTCUBE 1 30 Mar 23:33:01 23:37:35 78° 74° (ENE) 23:42:09 437.505/2401.250
QB50P2 30 Mar 23:37:41 23:41:13 25° 94° (E) 23:44:47 145.880/145.840
ANTELSAT 30 Mar 23:42:20 23:46:52 56° 100° (E) 23:51:29 437.575/2403.000
DX 1 30 Mar 23:44:53 23:48:01 19° 268° (W) 23:51:02 434.975-435.025
PCSat 30 Mar 23:55:36 00:01:03 69° 57° (ENE) 00:06:27 145.827
BUGSAT 1 30 Mar 23:57:01 00:00:29 27° 95° (E) 00:03:58 437.445
50 SAT 30 Mar 23:59:20 00:02:38 25° 266° (W) 00:05:54 437.505
POPSAT HIP 1 31 Mar 00:05:42 00:09:49 50° 99° (E) 00:13:57 437.405
TISAT 1 31 Mar 00:12:02 00:15:57 40° 71° (ENE) 00:19:56 437.305
NANOSAT C BR1 31 Mar 00:15:36 00:19:48 64° 101° (E) 00:24:00 145.865
POLYITAN 1 31 Mar 00:21:15 00:25:31 76° 102° (ESE) 00:29:46 437.675
ISS 31 Mar 00:23:22 00:26:26 38° 338° (NNW) 00:29:31 145.825
CUBEBUG 1 31 Mar 00:25:28 00:29:30 33° 264° (W) 00:33:28 437.445
SPROUT 31 Mar 00:27:52 00:32:08 70° 76° (ENE) 00:36:25 437.525
VELOX 1 31 Mar 00:31:58 00:34:33 15° 271° (W) 00:36:57 145.980
AISAT 31 Mar 00:38:03 00:40:04 12° 272° (W) 00:41:50 437.250
UNISAT 6 31 Mar 00:38:34 00:42:52 40° 289° (WNW) 00:47:12 437.425
TIGRISAT 31 Mar 00:48:12 00:52:19 33° 291° (WNW) 00:56:27 435.000
RS-15 31 Mar 00:50:06 00:59:03 26° 8° (N) 01:08:21 29.354- 29.394
ITUPSAT 1 31 Mar 00:56:07 00:59:47 23° 65° (ENE) 01:03:34 437.325
QB50P1 31 Mar 00:57:44 01:01:47 43° 289° (WNW) 01:05:48 145.935-145.965
DUCHIFAT 1 31 Mar 00:58:40 01:02:41 43° 288° (WNW) 01:06:41 145.980
QB50P2 31 Mar 01:13:25 01:17:08 30° 291° (WNW) 01:20:50 145.880/145.840
ESTCUBE 1 31 Mar 01:13:35 01:15:07 11° 274° (W) 01:16:21 437.505/2401.250
ANTELSAT 31 Mar 01:20:14 01:23:18 18° 296° (WNW) 01:26:16 437.575/2403.000
YUBILEINY 31 Mar 01:27:25 01:36:19 85° 81° (E) 01:45:07 435.215
BUGSAT 1 31 Mar 01:32:34 01:35:55 25° 292° (WNW) 01:39:13 437.445
SO-50 31 Mar 01:32:52 01:34:40 12° 26° (NNE) 01:36:38 436.795
PCSat 31 Mar 01:40:16 01:43:58 18° 253° (WSW) 01:47:26 145.827
SWISSCUBE 31 Mar 01:41:56 01:46:42 65° 73° (ENE) 01:51:30 437.505
POPSAT HIP 1 31 Mar 01:42:38 01:45:22 17° 296° (WNW) 01:48:00 437.405
BEESAT 31 Mar 01:44:37 01:49:22 64° 72° (ENE) 01:54:09 436.000
TISAT 1 31 Mar 01:48:55 01:51:58 19° 268° (W) 01:54:55 437.305
NANOSAT C BR1 31 Mar 01:53:04 01:55:13 13° 297° (WNW) 01:57:11 145.865
Oscar 19 31 Mar 01:56:15 02:00:28 25° 93° (E) 02:04:46 437.125/150
STARS 31 Mar 01:57:53 01:59:12 11° 60° (ENE) 02:00:43 437.465
POLYITAN 1 31 Mar 01:59:19 02:00:55 12° 298° (WNW) 02:02:19 437.675
ISS 31 Mar 02:00:53 02:03:27 21° 358° (N) 02:06:00 145.825
SPROUT 31 Mar 02:07:25 02:08:49 11° 273° (W) 02:09:58 437.525
Gurwin Techsat 1B 31 Mar 02:26:22 02:28:31 13° 86° (E) 02:30:58 435.225
ITUPSAT 1 31 Mar 02:32:49 02:37:26 45° 261° (W) 02:42:04 437.325
KKS-1 31 Mar 03:02:44 03:07:09 78° 76° (ENE) 03:11:37 437.445
RS-15 31 Mar 03:04:11 03:15:04 49° 40° (NE) 03:26:31 29.354- 29.394
ITAMSAT 1 31 Mar 03:05:12 03:09:54 35° 96° (E) 03:14:38 435.822/435.867
SO-50 31 Mar 03:11:46 03:16:32 45° 48° (NE) 03:21:16 436.795
SWISSCUBE 31 Mar 03:22:18 03:25:06 15° 271° (W) 03:27:41 437.505
BEESAT 31 Mar 03:24:54 03:27:44 15° 271° (W) 03:30:22 436.000
YUBILEINY 31 Mar 03:25:53 03:32:09 21° 281° (W) 03:37:59 435.215
STARS 31 Mar 03:30:43 03:35:06 83° 257° (WSW) 03:39:30 437.465
HORYU 2 31 Mar 03:32:20 03:33:05 10° 86° (E) 03:34:06 437.375
Oscar 19 31 Mar 03:35:08 03:40:01 43° 291° (WNW) 03:44:53 437.125/150
ISS 31 Mar 03:37:34 03:40:31 31° 18° (NNE) 03:43:28 145.825
AO-7 31 Mar 03:45:01 03:49:14 15° 85° (E) 03:53:59 29.400- 29.500
M-CUBED/EXP-1 PRIME 31 Mar 03:52:15 03:52:36 10° 51° (NE) 03:53:11 437.505
JAS-2 31 Mar 03:56:38 04:01:09 17° 82° (E) 04:05:51 435.910
Gurwin Techsat 1B 31 Mar 04:03:57 04:09:19 85° 287° (WNW) 04:14:38 435.225
AIST 1 31 Mar 04:18:12 04:22:24 46° 94° (E) 04:26:39
O/OREOS (USA 219) 31 Mar 04:36:01 04:40:37 87° 113° (ESE) 04:45:15 437.305
VERMONT LUNAR 31 Mar 04:43:17 04:44:40 12° 152° (SSE) 04:46:08 437.305
KKS-1 31 Mar 04:43:20 04:44:28 11° 273° (W) 04:45:19 437.445
ITAMSAT 1 31 Mar 04:44:47 04:49:22 32° 294° (WNW) 04:53:52 435.822/435.867
MOZHAYETS 4 31 Mar 04:50:14 04:54:47 60° 73° (ENE) 04:59:24
SO-50 31 Mar 04:52:42 04:56:56 28° 246° (WSW) 05:01:03 436.795
AUBIESAT-1 31 Mar 04:56:53 05:00:41 36° 64° (ENE) 05:04:50 437.475
HORYU 2 31 Mar 05:05:54 05:10:25 81° 285° (WNW) 05:14:56 437.375
ISS 31 Mar 05:13:53 05:17:03 53° 217° (SW) 05:20:12 145.825
RS-15 31 Mar 05:16:47 05:28:03 62° 244° (WSW) 05:39:44 29.354- 29.394
M-CUBED/EXP-1 PRIME 31 Mar 05:22:34 05:26:39 75° 70° (ENE) 05:31:09 437.505
AO-7 31 Mar 05:35:16 05:43:36 77° 106° (ESE) 05:51:55 29.400- 29.500
PHONESAT 2.4 31 Mar 05:38:25 05:40:18 14° 152° (SSE) 05:42:15 2401.200-2431.200
JAS-2 31 Mar 05:39:41 05:47:32 85° 104° (ESE) 05:54:41 435.910
GONETS M04 31 Mar 05:45:20 05:52:46 30° 65° (ENE) 06:00:24
Gurwin Techsat 1B 31 Mar 05:46:01 05:48:35 13° 302° (WNW) 05:50:54 435.225
AIST 1 31 Mar 05:57:25 06:00:24 17° 292° (WNW) 06:03:15
O/OREOS (USA 219) 31 Mar 06:18:27 06:20:48 13° 313° (NW) 06:22:59 437.305
VERMONT LUNAR 31 Mar 06:18:46 06:21:49 33° 166° (SSE) 06:24:53 437.305
MOZHAYETS 4 31 Mar 06:29:46 06:32:30 15° 272° (W) 06:35:03
AUBIESAT-1 31 Mar 06:32:19 06:35:40 23° 263° (W) 06:39:10 437.475
STRAND 1 31 Mar 06:37:01 06:41:44 38° 68° (ENE) 06:46:30 437.568
CUBESAT XI-V 31 Mar 06:42:24 06:47:05 71° 75° (ENE) 06:51:47 437.345
PRISM 31 Mar 06:43:55 06:48:05 61° 73° (ENE) 06:52:16 437.425
M-CUBED/EXP-1 PRIME 31 Mar 07:01:04 07:02:18 11° 270° (W) 07:03:18 437.505
PHONESAT 2.4 31 Mar 07:14:50 07:18:06 36° 167° (SSE) 07:21:23 2401.200-2431.200
